Time,TemperatureF,DewpointF,PressureIn,WindDirection,WindDirectionDegrees,WindSpeedMPH,WindSpeedGustMPH,Humidity,HourlyPrecipIn,Conditions,Clouds,dailyrainin,SoftwareType,DateUTC
2013-03-08 00:00:00,32.2,31.2,30.08,ENE,60,0.0,0.0,96,0.00,,---,0.11,VWS V14.01,2013-03-08 05:00:00,
2013-03-08 00:01:00,32.2,31.2,30.08,SE,124,0.0,0.0,96,0.00,,---,0.00,VWS V14.01,2013-03-08 05:01:00,
2013-03-08 00:06:00,32.2,31.2,30.07,South,177,0.0,1.0,96,0.00,,---,0.00,VWS V14.01,2013-03-08 05:06:00,
2013-03-08 00:11:00,32.1,31.1,30.08,South,177,0.0,1.0,96,0.00,,---,0.00,VWS V14.01,2013-03-08 05:11:00,
2013-03-08 00:16:00,32.1,31.1,30.07,South,173,0.0,1.0,96,0.00,,---,0.00,VWS V14.01,2013-03-08 05:16:00,
2013-03-08 00:21:00,32.1,31.1,30.07,ENE,69,0.0,1.0,96,0.00,,---,0.00,VWS V14.01,2013-03-08 05:21:00,
2013-03-08 00:26:00,32.0,31.0,30.07,ENE,70,0.0,1.0,96,0.00,,---,0.00,VWS V14.01,2013-03-08 05:26:00,
2013-03-08 00:31:00,32.1,31.1,30.07,WSW,255,0.0,0.0,96,0.00,,---,0.00,VWS V14.01,2013-03-08 05:31:00,
2013-03-08 00:36:00,32.0,31.0,30.07,NNE,23,1.0,1.0,96,0.00,,---,0.00,VWS V14.01,2013-03-08 05:36:00,
2013-03-08 00:41:00,31.9,30.9,30.07,West,273,0.0,1.0,96,0.00,,---,0.00,VWS V14.01,2013-03-08 05:41:00,
2013-03-08 00:46:00,32.0,31.0,30.07,West,280,0.0,1.0,96,0.00,,---,0.00,VWS V14.01,2013-03-08 05:46:00,
2013-03-08 00:51:00,31.9,30.9,30.07,NE,56,0.0,1.0,96,0.00,,---,0.00,VWS V14.01,2013-03-08 05:51:00,
2013-03-08 00:56:00,31.8,30.8,30.07,WNW,295,1.0,1.0,96,0.00,,---,0.00,VWS V14.01,2013-03-08 05:56:00,
2013-03-08 01:01:00,31.8,30.8,30.07,WNW,294,0.0,0.0,96,0.00,,---,0.00,VWS V14.01,2013-03-08 06:01:00,
2013-03-08 01:06:00,31.8,30.8,30.07,NW,320,0.0,1.0,96,0.00,,---,0.00,VWS V14.01,2013-03-08 06:06:00,
2013-03-08 01:11:00,31.8,30.8,30.07,ENE,63,0.0,1.0,96,0.00,,---,0.00,VWS V14.01,2013-03-08 06:11:00,
2013-03-08 01:16:00,31.8,30.8,30.08,NW,321,0.0,1.0,96,0.00,,---,0.00,VWS V14.01,2013-03-08 06:16:00,
2013-03-08 01:21:00,31.8,30.8,30.08,North,1,0.0,1.0,96,0.00,,---,0.00,VWS V14.01,2013-03-08 06:21:00,
2013-03-08 01:26:00,31.8,30.8,30.08,North,6,0.0,1.0,96,0.00,,---,0.00,VWS V14.01,2013-03-08 06:26:00,
2013-03-08 01:31:00,31.8,30.8,30.08,WSW,253,0.0,0.0,96,0.00,,---,0.00,VWS V14.01,2013-03-08 06:31:00,
2013-03-08 01:36:00,31.7,30.7,30.07,NNW,342,0.0,0.0,96,0.00,,---,0.00,VWS V14.01,2013-03-08 06:36:00,
2013-03-08 01:41:00,31.7,30.7,30.07,NNE,23,0.0,0.0,96,0.00,,---,0.00,VWS V14.01,2013-03-08 06:41:00,
2013-03-08 01:46:00,31.6,30.6,30.07,NNE,27,0.0,0.0,96,0.00,,---,0.00,VWS V14.01,2013-03-08 06:46:00,
2013-03-08 01:51:00,31.6,30.6,30.07,NE,38,0.0,0.0,96,0.00,,---,0.00,VWS V14.01,2013-03-08 06:51:00,
2013-03-08 01:56:00,31.5,30.5,30.07,West,278,0.0,0.0,96,0.00,,---,0.00,VWS V14.01,2013-03-08 06:56:00,
2013-03-08 02:01:00,31.5,30.5,30.07,NW,326,0.0,0.0,96,0.00,,---,0.00,VWS V14.01,2013-03-08 07:01:00,
2013-03-08 02:06:00,31.5,30.2,30.06,NE,41,0.0,0.0,95,0.00,,---,0.00,VWS V14.01,2013-03-08 07:06:00,
2013-03-08 02:11:00,31.5,30.2,30.06,NNW,334,0.0,0.0,95,0.00,,---,0.00,VWS V14.01,2013-03-08 07:11:00,
2013-03-08 02:16:00,31.4,30.1,30.06,NNE,28,0.0,0.0,95,0.00,,---,0.00,VWS V14.01,2013-03-08 07:16:00,
2013-03-08 02:21:00,31.4,30.1,30.06,NW,323,0.0,0.0,95,0.00,,---,0.00,VWS V14.01,2013-03-08 07:21:00,
2013-03-08 02:26:00,31.4,30.1,30.05,NNE,32,0.0,0.0,95,0.00,,---,0.00,VWS V14.01,2013-03-08 07:26:00,
2013-03-08 02:31:00,31.4,30.1,30.05,NNW,345,0.0,0.0,95,0.00,,---,0.00,VWS V14.01,2013-03-08 07:31:00,
2013-03-08 02:36:00,31.4,30.1,30.05,NW,325,0.0,0.0,95,0.00,,---,0.00,VWS V14.01,2013-03-08 07:36:00,
2013-03-08 02:41:00,31.5,30.5,30.05,NW,317,0.0,0.0,96,0.00,,---,0.00,VWS V14.01,2013-03-08 07:41:00,
2013-03-08 02:46:00,31.4,30.1,30.05,NE,35,0.0,1.0,95,0.00,,---,0.00,VWS V14.01,2013-03-08 07:46:00,
2013-03-08 02:51:00,31.4,30.1,30.04,NE,36,0.0,1.0,95,0.00,,---,0.00,VWS V14.01,2013-03-08 07:51:00,
2013-03-08 02:56:00,31.4,30.1,30.04,NE,36,0.0,1.0,95,0.00,,---,0.00,VWS V14.01,2013-03-08 07:56:00,
2013-03-08 03:01:00,31.4,30.1,30.04,NE,39,0.0,0.0,95,0.00,,---,0.00,VWS V14.01,2013-03-08 08:01:00,
2013-03-08 03:06:00,31.3,30.0,30.04,NW,307,0.0,0.0,95,0.00,,---,0.00,VWS V14.01,2013-03-08 08:06:00,
2013-03-08 03:11:00,31.3,30.0,30.04,North,9,0.0,0.0,95,0.00,,---,0.00,VWS V14.01,2013-03-08 08:11:00,
2013-03-08 03:16:00,31.4,30.1,30.04,ESE,106,0.0,0.0,95,0.00,,---,0.00,VWS V14.01,2013-03-08 08:16:00,
2013-03-08 03:21:00,31.3,30.0,30.04,ENE,72,0.0,0.0,95,0.00,,---,0.00,VWS V14.01,2013-03-08 08:21:00,
2013-03-08 03:26:00,31.3,30.0,30.04,NW,309,0.0,1.0,95,0.00,,---,0.00,VWS V14.01,2013-03-08 08:26:00,
2013-03-08 03:31:00,31.2,29.9,30.03,North,359,0.0,0.0,95,0.00,,---,0.00,VWS V14.01,2013-03-08 08:31:00,
2013-03-08 03:36:00,31.2,29.9,30.04,North,5,0.0,1.0,95,0.00,,---,0.00,VWS V14.01,2013-03-08 08:36:00,
2013-03-08 03:41:00,31.2,29.9,30.03,South,170,0.0,1.0,95,0.00,,---,0.00,VWS V14.01,2013-03-08 08:41:00,
2013-03-08 03:46:00,31.2,29.9,30.03,NNE,13,0.0,1.0,95,0.00,,---,0.00,VWS V14.01,2013-03-08 08:46:00,
2013-03-08 03:51:00,31.2,29.9,30.03,WNW,303,0.0,1.0,95,0.00,,---,0.00,VWS V14.01,2013-03-08 08:51:00,
2013-03-08 03:56:00,31.2,29.9,30.03,WNW,297,0.0,1.0,95,0.00,,---,0.00,VWS V14.01,2013-03-08 08:56:00,
2013-03-08 04:01:00,31.1,29.8,30.03,NNE,22,0.0,0.0,95,0.00,,---,0.00,VWS V14.01,2013-03-08 09:01:00,
2013-03-08 04:06:00,31.2,29.9,30.03,WSW,257,0.0,0.0,95,0.00,,---,0.00,VWS V14.01,2013-03-08 09:06:00,
2013-03-08 04:11:00,31.2,29.9,30.03,WSW,257,0.0,0.0,95,0.00,,---,0.00,VWS V14.01,2013-03-08 09:11:00,
2013-03-08 04:16:00,31.2,29.9,30.03,ENE,65,0.0,0.0,95,0.00,,---,0.00,VWS V14.01,2013-03-08 09:16:00,
2013-03-08 04:21:00,31.1,29.8,30.03,North,9,0.0,1.0,95,0.00,,---,0.00,VWS V14.01,2013-03-08 09:21:00,
2013-03-08 04:26:00,31.0,29.7,30.03,WSW,245,0.0,1.0,95,0.00,,---,0.00,VWS V14.01,2013-03-08 09:26:00,
2013-03-08 04:31:00,31.0,29.7,30.03,East,100,0.0,0.0,95,0.00,,---,0.00,VWS V14.01,2013-03-08 09:31:00,
2013-03-08 04:36:00,31.0,29.7,30.03,NW,315,0.0,0.0,95,0.00,,---,0.00,VWS V14.01,2013-03-08 09:36:00,
2013-03-08 04:41:00,31.0,29.7,30.03,North,349,0.0,0.0,95,0.00,,---,0.00,VWS V14.01,2013-03-08 09:41:00,
2013-03-08 04:46:00,31.1,29.8,30.03,NNW,327,0.0,0.0,95,0.00,,---,0.00,VWS V14.01,2013-03-08 09:46:00,
2013-03-08 04:51:00,31.0,29.7,30.03,WNW,282,0.0,1.0,95,0.00,,---,0.00,VWS V14.01,2013-03-08 09:51:00,
2013-03-08 04:56:00,31.0,29.7,30.03,NNE,26,0.0,1.0,95,0.00,,---,0.00,VWS V14.01,2013-03-08 09:56:00,
2013-03-08 05:01:00,30.9,29.6,30.03,WSW,249,0.0,0.0,95,0.00,,---,0.00,VWS V14.01,2013-03-08 10:01:00,
2013-03-08 05:06:00,30.9,29.6,30.03,NNE,20,0.0,1.0,95,0.00,,---,0.00,VWS V14.01,2013-03-08 10:06:00,
2013-03-08 05:11:00,30.9,29.6,30.03,NNW,332,0.0,1.0,95,0.00,,---,0.00,VWS V14.01,2013-03-08 10:11:00,
2013-03-08 05:16:00,30.9,29.6,30.03,South,172,0.0,1.0,95,0.00,,---,0.00,VWS V14.01,2013-03-08 10:16:00,
2013-03-08 05:21:00,30.9,29.6,30.03,South,172,0.0,1.0,95,0.00,,---,0.00,VWS V14.01,2013-03-08 10:21:00,
2013-03-08 05:26:00,30.9,29.6,30.03,South,172,0.0,1.0,95,0.00,,---,0.00,VWS V14.01,2013-03-08 10:26:00,
2013-03-08 05:31:00,30.9,29.6,30.03,South,172,0.0,0.0,95,0.00,,---,0.00,VWS V14.01,2013-03-08 10:31:00,
2013-03-08 05:36:00,30.8,29.5,30.03,South,172,0.0,0.0,95,0.00,,---,0.00,VWS V14.01,2013-03-08 10:36:00,
2013-03-08 05:41:00,30.8,29.5,30.03,South,172,0.0,0.0,95,0.00,,---,0.00,VWS V14.01,2013-03-08 10:41:00,
2013-03-08 05:46:00,30.7,29.4,30.03,South,172,0.0,0.0,95,0.00,,---,0.00,VWS V14.01,2013-03-08 10:46:00,
2013-03-08 05:51:00,30.7,29.4,30.03,South,172,0.0,0.0,95,0.00,,---,0.00,VWS V14.01,2013-03-08 10:51:00,
2013-03-08 05:56:00,30.7,29.4,30.03,South,172,0.0,0.0,95,0.00,,---,0.00,VWS V14.01,2013-03-08 10:56:00,
2013-03-08 06:01:00,30.7,29.4,30.03,South,172,0.0,0.0,95,0.00,,---,0.00,VWS V14.01,2013-03-08 11:01:00,
2013-03-08 06:06:00,30.7,29.4,30.04,South,172,0.0,0.0,95,0.00,,---,0.00,VWS V14.01,2013-03-08 11:06:00,
2013-03-08 06:11:00,30.6,29.3,30.04,South,172,0.0,0.0,95,0.00,,---,0.00,VWS V14.01,2013-03-08 11:11:00,
2013-03-08 06:16:00,30.6,29.3,30.04,South,172,0.0,0.0,95,0.00,,---,0.00,VWS V14.01,2013-03-08 11:16:00,
2013-03-08 06:21:00,30.5,29.2,30.04,South,172,0.0,0.0,95,0.00,,---,0.00,VWS V14.01,2013-03-08 11:21:00,
2013-03-08 06:26:00,30.5,29.2,30.04,South,172,0.0,0.0,95,0.00,,---,0.00,VWS V14.01,2013-03-08 11:26:00,
2013-03-08 06:31:00,30.5,29.2,30.04,South,172,0.0,0.0,95,0.00,,---,0.00,VWS V14.01,2013-03-08 11:31:00,
2013-03-08 06:36:00,30.5,29.2,30.04,South,172,0.0,0.0,95,0.00,,---,0.00,VWS V14.01,2013-03-08 11:36:00,
2013-03-08 06:41:00,30.4,29.1,30.04,South,172,0.0,0.0,95,0.00,,---,0.00,VWS V14.01,2013-03-08 11:41:00,
2013-03-08 06:46:00,30.4,29.1,30.04,South,172,0.0,0.0,95,0.00,,---,0.00,VWS V14.01,2013-03-08 11:46:00,
2013-03-08 06:51:00,30.4,29.1,30.04,South,172,0.0,0.0,95,0.00,,---,0.00,VWS V14.01,2013-03-08 11:51:00,
2013-03-08 06:56:00,30.4,29.1,30.04,South,172,0.0,0.0,95,0.00,,---,0.00,VWS V14.01,2013-03-08 11:56:00,
2013-03-08 07:01:00,30.4,29.1,30.04,South,172,0.0,0.0,95,0.00,,---,0.00,VWS V14.01,2013-03-08 12:01:00,
2013-03-08 07:06:00,30.4,29.1,30.04,South,172,0.0,1.0,95,0.00,,---,0.00,VWS V14.01,2013-03-08 12:06:00,
2013-03-08 07:11:00,30.3,29.0,30.04,South,172,0.0,1.0,95,0.00,,---,0.00,VWS V14.01,2013-03-08 12:11:00,
2013-03-08 07:16:00,30.4,29.1,30.04,South,172,0.0,1.0,95,0.00,,---,0.00,VWS V14.01,2013-03-08 12:16:00,
2013-03-08 07:21:00,30.4,29.4,30.04,South,172,0.0,1.0,96,0.00,,---,0.00,VWS V14.01,2013-03-08 12:21:00,
2013-03-08 07:26:00,30.3,29.0,30.04,South,172,0.0,1.0,95,0.00,,---,0.00,VWS V14.01,2013-03-08 12:26:00,
2013-03-08 07:31:00,30.3,29.0,30.05,NW,320,1.0,1.0,95,0.00,,---,0.00,VWS V14.01,2013-03-08 12:31:00,
2013-03-08 07:36:00,30.1,28.8,30.04,NE,44,0.0,1.0,95,0.00,,---,0.00,VWS V14.01,2013-03-08 12:36:00,
2013-03-08 07:41:00,30.1,28.8,30.04,NW,305,0.0,1.0,95,0.00,,---,0.00,VWS V14.01,2013-03-08 12:41:00,
2013-03-08 07:46:00,30.1,28.8,30.04,NE,46,0.0,1.0,95,0.00,,---,0.00,VWS V14.01,2013-03-08 12:46:00,
2013-03-08 07:51:00,30.1,28.8,30.04,WSW,238,0.0,1.0,95,0.00,,---,0.00,VWS V14.01,2013-03-08 12:51:00,
2013-03-08 07:56:00,30.2,29.2,30.04,South,190,0.0,1.0,96,0.00,,---,0.00,VWS V14.01,2013-03-08 12:56:00,
2013-03-08 08:01:00,30.2,29.2,30.05,South,190,0.0,0.0,96,0.00,,---,0.00,VWS V14.01,2013-03-08 13:01:00,
2013-03-08 08:06:00,30.2,29.2,30.05,South,190,1.0,1.0,96,0.00,,---,0.00,VWS V14.01,2013-03-08 13:06:00,
2013-03-08 08:11:00,30.2,28.9,30.05,South,190,0.0,1.0,95,0.00,,---,0.00,VWS V14.01,2013-03-08 13:11:00,
2013-03-08 08:16:00,30.1,29.1,30.05,South,188,0.0,1.0,96,0.00,,---,0.00,VWS V14.01,2013-03-08 13:16:00,
2013-03-08 08:21:00,30.0,28.7,30.05,South,189,0.0,1.0,95,0.00,,---,0.00,VWS V14.01,2013-03-08 13:21:00,
2013-03-08 08:26:00,30.0,29.0,30.05,South,188,0.0,1.0,96,0.00,,---,0.00,VWS V14.01,2013-03-08 13:26:00,
2013-03-08 08:31:00,30.0,29.0,30.05,South,188,0.0,0.0,96,0.00,,---,0.00,VWS V14.01,2013-03-08 13:31:00,
2013-03-08 08:36:00,30.1,29.1,30.05,South,188,0.0,0.0,96,0.00,,---,0.00,VWS V14.01,2013-03-08 13:36:00,
2013-03-08 08:41:00,30.3,29.3,30.05,South,189,0.0,0.0,96,0.00,,---,0.00,VWS V14.01,2013-03-08 13:41:00,
2013-03-08 08:46:00,30.3,29.3,30.05,South,188,0.0,0.0,96,0.00,,---,0.00,VWS V14.01,2013-03-08 13:46:00,
2013-03-08 08:51:00,30.4,29.4,30.06,South,189,0.0,0.0,96,0.00,,---,0.00,VWS V14.01,2013-03-08 13:51:00,
2013-03-08 08:56:00,30.4,29.4,30.06,South,189,0.0,0.0,96,0.00,,---,0.00,VWS V14.01,2013-03-08 13:56:00,
2013-03-08 09:01:00,30.4,29.4,30.06,South,188,0.0,0.0,96,0.00,,---,0.00,VWS V14.01,2013-03-08 14:01:00,
2013-03-08 09:06:00,30.4,29.4,30.06,South,189,0.0,0.0,96,0.00,,---,0.00,VWS V14.01,2013-03-08 14:06:00,
2013-03-08 09:11:00,30.4,29.4,30.06,South,189,0.0,0.0,96,0.00,,---,0.00,VWS V14.01,2013-03-08 14:11:00,
2013-03-08 09:16:00,30.6,29.6,30.06,South,188,0.0,0.0,96,0.00,,---,0.00,VWS V14.01,2013-03-08 14:16:00,
2013-03-08 09:21:00,30.7,29.7,30.06,South,188,0.0,0.0,96,0.00,,---,0.00,VWS V14.01,2013-03-08 14:21:00,
2013-03-08 09:26:00,30.6,29.6,30.06,South,188,0.0,0.0,96,0.00,,---,0.00,VWS V14.01,2013-03-08 14:26:00,
2013-03-08 09:31:00,30.6,29.6,30.06,South,188,0.0,0.0,96,0.00,,---,0.00,VWS V14.01,2013-03-08 14:31:00,
2013-03-08 09:36:00,30.8,29.8,30.06,South,188,0.0,0.0,96,0.00,,---,0.00,VWS V14.01,2013-03-08 14:36:00,
2013-03-08 09:41:00,30.9,29.9,30.06,South,189,0.0,0.0,96,0.00,,---,0.00,VWS V14.01,2013-03-08 14:41:00,
2013-03-08 09:46:00,30.9,29.9,30.06,South,188,0.0,0.0,96,0.00,,---,0.00,VWS V14.01,2013-03-08 14:46:00,
2013-03-08 09:51:00,30.9,29.9,30.06,South,188,0.0,0.0,96,0.00,,---,0.00,VWS V14.01,2013-03-08 14:51:00,
2013-03-08 09:56:00,30.8,29.8,30.07,South,188,0.0,0.0,96,0.00,,---,0.00,VWS V14.01,2013-03-08 14:56:00,
2013-03-08 10:01:00,30.8,29.8,30.07,South,189,0.0,0.0,96,0.00,,---,0.00,VWS V14.01,2013-03-08 15:01:00,
2013-03-08 10:06:00,30.9,29.9,30.06,South,188,0.0,0.0,96,0.00,,---,0.00,VWS V14.01,2013-03-08 15:06:00,
2013-03-08 10:11:00,30.9,29.9,30.06,South,188,0.0,0.0,96,0.00,,---,0.00,VWS V14.01,2013-03-08 15:11:00,
2013-03-08 10:16:00,31.0,30.0,30.06,South,188,0.0,0.0,96,0.00,,---,0.00,VWS V14.01,2013-03-08 15:16:00,
2013-03-08 10:21:00,31.0,30.0,30.06,South,188,0.0,0.0,96,0.00,,---,0.00,VWS V14.01,2013-03-08 15:21:00,
2013-03-08 10:26:00,31.0,30.0,30.06,South,188,0.0,0.0,96,0.00,,---,0.00,VWS V14.01,2013-03-08 15:26:00,
2013-03-08 10:31:00,31.0,30.0,30.07,South,188,0.0,0.0,96,0.00,,---,0.00,VWS V14.01,2013-03-08 15:31:00,
2013-03-08 10:36:00,31.0,30.0,30.07,South,188,0.0,0.0,96,0.00,,---,0.00,VWS V14.01,2013-03-08 15:36:00,
2013-03-08 10:41:00,31.1,30.1,30.07,South,188,0.0,0.0,96,0.00,,---,0.00,VWS V14.01,2013-03-08 15:41:00,
2013-03-08 10:46:00,31.1,30.1,30.07,South,188,0.0,0.0,96,0.00,,---,0.00,VWS V14.01,2013-03-08 15:46:00,
2013-03-08 10:51:00,31.1,30.1,30.07,South,188,0.0,0.0,96,0.00,,---,0.00,VWS V14.01,2013-03-08 15:51:00,
2013-03-08 10:56:00,31.2,30.2,30.07,South,189,0.0,0.0,96,0.00,,---,0.00,VWS V14.01,2013-03-08 15:56:00,
2013-03-08 11:01:00,31.4,30.4,30.07,South,188,0.0,0.0,96,0.00,,---,0.00,VWS V14.01,2013-03-08 16:01:00,
2013-03-08 11:06:00,31.4,30.4,30.06,South,188,0.0,0.0,96,0.00,,---,0.00,VWS V14.01,2013-03-08 16:06:00,
2013-03-08 11:11:00,31.3,30.3,30.06,ENE,68,0.0,0.0,96,0.00,,---,0.00,VWS V14.01,2013-03-08 16:11:00,
2013-03-08 11:16:00,31.4,30.4,30.06,South,184,0.0,0.0,96,0.00,,---,0.00,VWS V14.01,2013-03-08 16:16:00,
2013-03-08 11:21:00,31.6,30.6,30.06,NE,43,0.0,0.0,96,0.00,,---,0.00,VWS V14.01,2013-03-08 16:21:00,
2013-03-08 11:26:00,31.5,30.5,30.06,NW,305,0.0,0.0,96,0.00,,---,0.00,VWS V14.01,2013-03-08 16:26:00,
2013-03-08 11:31:00,31.6,30.6,30.07,NE,44,0.0,0.0,96,0.00,,---,0.00,VWS V14.01,2013-03-08 16:31:00,
2013-03-08 11:36:00,31.6,30.6,30.06,ENE,70,0.0,0.0,96,0.00,,---,0.00,VWS V14.01,2013-03-08 16:36:00,
2013-03-08 11:41:00,31.6,30.6,30.06,NE,46,0.0,0.0,96,0.00,,---,0.00,VWS V14.01,2013-03-08 16:41:00,
2013-03-08 11:46:00,31.6,30.6,30.06,NNE,26,0.0,0.0,96,0.00,,---,0.00,VWS V14.01,2013-03-08 16:46:00,
2013-03-08 11:51:00,31.7,30.7,30.06,WNW,290,0.0,0.0,96,0.00,,---,0.00,VWS V14.01,2013-03-08 16:51:00,
2013-03-08 11:56:00,31.7,30.7,30.06,NW,305,0.0,0.0,96,0.00,,---,0.00,VWS V14.01,2013-03-08 16:56:00,
2013-03-08 12:01:00,31.7,30.7,30.06,ESE,107,0.0,0.0,96,0.00,,---,0.00,VWS V14.01,2013-03-08 17:01:00,
2013-03-08 12:06:00,31.8,30.8,30.06,ENE,77,0.0,0.0,96,0.00,,---,0.00,VWS V14.01,2013-03-08 17:06:00,
2013-03-08 12:11:00,31.9,30.9,30.06,ENE,64,0.0,0.0,96,0.00,,---,0.00,VWS V14.01,2013-03-08 17:11:00,
2013-03-08 12:16:00,32.0,31.0,30.06,ENE,66,0.0,0.0,96,0.00,,---,0.00,VWS V14.01,2013-03-08 17:16:00,
2013-03-08 12:21:00,32.1,31.1,30.06,NNE,20,0.0,0.0,96,0.00,,---,0.00,VWS V14.01,2013-03-08 17:21:00,
2013-03-08 12:26:00,32.2,31.2,30.06,NW,315,0.0,0.0,96,0.00,,---,0.00,VWS V14.01,2013-03-08 17:26:00,
2013-03-08 12:31:00,32.2,31.2,30.05,ENE,68,0.0,0.0,96,0.00,,---,0.00,VWS V14.01,2013-03-08 17:31:00,
2013-03-08 12:36:00,32.3,31.3,30.05,NNE,15,0.0,0.0,96,0.01,,---,0.01,VWS V14.01,2013-03-08 17:36:00,
2013-03-08 12:41:00,32.4,31.4,30.05,NE,38,0.0,0.0,96,0.01,,---,0.01,VWS V14.01,2013-03-08 17:41:00,
2013-03-08 12:46:00,32.5,31.5,30.05,NE,41,0.0,0.0,96,0.01,,---,0.01,VWS V14.01,2013-03-08 17:46:00,
2013-03-08 12:51:00,32.5,31.5,30.05,NNW,335,0.0,0.0,96,0.01,,---,0.01,VWS V14.01,2013-03-08 17:51:00,
2013-03-08 12:56:00,32.5,31.5,30.05,ENE,64,0.0,0.0,96,0.01,,---,0.01,VWS V14.01,2013-03-08 17:56:00,
2013-03-08 13:01:00,32.7,31.7,30.04,North,9,0.0,0.0,96,0.01,,---,0.01,VWS V14.01,2013-03-08 18:01:00,
2013-03-08 13:06:00,32.8,31.8,30.05,ESE,118,0.0,0.0,96,0.01,,---,0.01,VWS V14.01,2013-03-08 18:06:00,
2013-03-08 13:11:00,33.0,32.0,30.04,ENE,64,0.0,0.0,96,0.01,,---,0.01,VWS V14.01,2013-03-08 18:11:00,
2013-03-08 13:16:00,33.1,32.1,30.04,ENE,78,0.0,0.0,96,0.01,,---,0.01,VWS V14.01,2013-03-08 18:16:00,
2013-03-08 13:21:00,33.1,32.1,30.05,NNE,22,0.0,0.0,96,0.01,,---,0.01,VWS V14.01,2013-03-08 18:21:00,
2013-03-08 13:26:00,33.3,32.3,30.05,North,359,0.0,0.0,96,0.01,,---,0.01,VWS V14.01,2013-03-08 18:26:00,
2013-03-08 13:31:00,33.3,32.0,30.05,ENE,63,0.0,0.0,95,0.01,,---,0.01,VWS V14.01,2013-03-08 18:31:00,
2013-03-08 13:36:00,33.5,32.2,30.04,North,349,0.0,0.0,95,0.01,,---,0.01,VWS V14.01,2013-03-08 18:36:00,
2013-03-08 13:41:00,33.6,32.3,30.04,NE,40,0.0,0.0,95,0.01,,---,0.01,VWS V14.01,2013-03-08 18:41:00,
2013-03-08 13:46:00,33.8,32.5,30.03,NE,39,0.0,0.0,95,0.01,,---,0.01,VWS V14.01,2013-03-08 18:46:00,
2013-03-08 13:51:00,34.1,32.8,30.04,North,356,0.0,0.0,95,0.01,,---,0.01,VWS V14.01,2013-03-08 18:51:00,
2013-03-08 13:56:00,34.2,32.7,30.04,WNW,297,0.0,0.0,94,0.01,,---,0.01,VWS V14.01,2013-03-08 18:56:00,
2013-03-08 14:00:00,34.5,33.0,30.04,NNW,344,0.0,0.0,94,0.01,,---,0.01,VWS V14.01,2013-03-08 19:00:00,
2013-03-08 14:05:00,34.7,33.2,30.05,NE,51,6.0,6.0,94,0.00,,---,0.01,VWS V14.01,2013-03-08 19:05:00,
2013-03-08 14:10:00,34.8,33.2,30.05,NE,45,4.0,7.0,94,0.00,,---,0.01,VWS V14.01,2013-03-08 19:10:00,
2013-03-08 14:15:00,34.8,33.2,30.05,NNE,25,3.0,7.0,94,0.00,,---,0.01,VWS V14.01,2013-03-08 19:15:00,
2013-03-08 14:20:00,35.0,33.5,30.05,NNE,30,1.0,7.0,94,0.00,,---,0.01,VWS V14.01,2013-03-08 19:20:00,
2013-03-08 14:25:00,35.2,33.7,30.05,NNE,33,0.0,7.0,94,0.00,,---,0.01,VWS V14.01,2013-03-08 19:25:00,
2013-03-08 14:30:00,35.3,33.8,30.05,NNE,25,0.0,7.0,94,0.00,,---,0.01,VWS V14.01,2013-03-08 19:30:00,
2013-03-08 14:35:00,35.5,34.0,30.05,NE,44,0.0,3.0,94,0.00,,---,0.01,VWS V14.01,2013-03-08 19:35:00,
2013-03-08 14:40:00,35.7,34.2,30.06,NE,53,4.0,4.0,94,0.00,,---,0.01,VWS V14.01,2013-03-08 19:40:00,
2013-03-08 14:45:00,36.0,34.2,30.07,NNE,31,4.0,8.0,93,0.01,,---,0.02,VWS V14.01,2013-03-08 19:45:00,
2013-03-08 14:50:00,36.1,34.0,30.07,NNE,32,2.0,8.0,92,0.01,,---,0.02,VWS V14.01,2013-03-08 19:50:00,
2013-03-08 14:55:00,36.1,34.0,30.07,NE,55,4.0,8.0,92,0.01,,---,0.02,VWS V14.01,2013-03-08 19:55:00,
2013-03-08 15:00:00,36.2,34.1,30.08,NW,307,6.0,8.0,92,0.01,,---,0.02,VWS V14.01,2013-03-08 20:00:00,
2013-03-08 15:05:00,36.4,34.0,30.07,NNE,19,3.0,16.0,91,0.04,,---,0.05,VWS V14.01,2013-03-08 20:05:00,
2013-03-08 15:10:00,36.6,34.0,30.07,NNW,335,5.0,16.0,90,0.07,,---,0.08,VWS V14.01,2013-03-08 20:10:00,
2013-03-08 15:15:00,36.8,33.9,30.07,NNE,15,9.0,16.0,89,0.10,,---,0.11,VWS V14.01,2013-03-08 20:15:00,
2013-03-08 15:20:00,37.0,33.8,30.06,North,3,7.0,16.0,88,0.13,,---,0.14,VWS V14.01,2013-03-08 20:20:00,
2013-03-08 15:25:00,37.2,34.0,30.06,NW,315,10.0,18.0,88,0.16,,---,0.17,VWS V14.01,2013-03-08 20:25:00,
2013-03-08 15:30:00,37.4,33.9,30.06,NE,41,12.0,18.0,87,0.19,,---,0.20,VWS V14.01,2013-03-08 20:30:00,
2013-03-08 15:35:00,37.6,33.8,30.07,ENE,73,5.0,16.0,86,0.22,,---,0.23,VWS V14.01,2013-03-08 20:35:00,
2013-03-08 15:40:00,37.9,33.8,30.07,NNE,20,8.0,16.0,85,0.24,,---,0.25,VWS V14.01,2013-03-08 20:40:00,
2013-03-08 15:45:00,38.2,33.8,30.07,NNW,338,4.0,16.0,84,0.26,,---,0.27,VWS V14.01,2013-03-08 20:45:00,
2013-03-08 15:50:00,38.4,33.7,30.07,NNW,335,6.0,16.0,83,0.28,,---,0.29,VWS V14.01,2013-03-08 20:50:00,
2013-03-08 15:55:00,38.6,33.9,30.07,NNE,18,6.0,16.0,83,0.30,,---,0.31,VWS V14.01,2013-03-08 20:55:00,
2013-03-08 16:00:00,38.8,33.8,30.07,NE,34,8.0,16.0,82,0.32,,---,0.33,VWS V14.01,2013-03-08 21:00:00,
2013-03-08 16:05:00,39.0,34.0,30.07,NNW,338,5.0,13.0,82,0.32,,---,0.34,VWS V14.01,2013-03-08 21:05:00,
2013-03-08 16:10:00,39.2,34.2,30.08,North,10,9.0,13.0,82,0.33,,---,0.35,VWS V14.01,2013-03-08 21:10:00,
2013-03-08 16:15:00,39.2,34.2,30.08,NE,40,11.0,13.0,82,0.35,,---,0.37,VWS V14.01,2013-03-08 21:15:00,
2013-03-08 16:20:00,39.4,34.4,30.08,North,1,4.0,13.0,82,0.36,,---,0.38,VWS V14.01,2013-03-08 21:20:00,
2013-03-08 16:25:00,39.4,34.4,30.09,ENE,75,8.0,13.0,82,0.37,,---,0.39,VWS V14.01,2013-03-08 21:25:00,
2013-03-08 16:30:00,39.5,34.5,30.09,North,8,9.0,13.0,82,0.38,,---,0.40,VWS V14.01,2013-03-08 21:30:00,
2013-03-08 16:35:00,39.6,34.6,30.09,NNE,22,5.0,12.0,82,0.20,,---,0.40,VWS V14.01,2013-03-08 21:35:00,
2013-03-08 16:40:00,39.6,34.6,30.09,NNE,32,9.0,14.0,82,0.21,,---,0.41,VWS V14.01,2013-03-08 21:40:00,
2013-03-08 16:45:00,39.5,34.8,30.10,NNE,13,6.0,14.0,83,0.22,,---,0.42,VWS V14.01,2013-03-08 21:45:00,
2013-03-08 16:50:00,39.5,34.8,30.10,NE,56,4.0,14.0,83,0.22,,---,0.42,VWS V14.01,2013-03-08 21:50:00,
2013-03-08 16:55:00,39.5,34.8,30.11,NW,313,3.0,14.0,83,0.22,,---,0.42,VWS V14.01,2013-03-08 21:55:00,
2013-03-08 17:00:00,39.6,34.9,30.11,North,4,3.0,14.0,83,0.23,,---,0.43,VWS V14.01,2013-03-08 22:00:00,
2013-03-08 17:05:00,39.6,34.9,30.11,NNW,334,2.0,8.0,83,0.10,,---,0.43,VWS V14.01,2013-03-08 22:05:00,
2013-03-08 17:10:00,39.7,35.0,30.11,NNE,31,1.0,9.0,83,0.10,,---,0.43,VWS V14.01,2013-03-08 22:10:00,
2013-03-08 17:15:00,39.7,35.0,30.12,ENE,59,3.0,9.0,83,0.11,,---,0.44,VWS V14.01,2013-03-08 22:15:00,
2013-03-08 17:20:00,39.8,34.8,30.12,NNE,25,3.0,9.0,82,0.11,,---,0.44,VWS V14.01,2013-03-08 22:20:00,
2013-03-08 17:25:00,39.9,34.9,30.11,NE,40,1.0,9.0,82,0.11,,---,0.44,VWS V14.01,2013-03-08 22:25:00,
2013-03-08 17:30:00,39.9,34.9,30.11,NNE,25,7.0,9.0,82,0.12,,---,0.45,VWS V14.01,2013-03-08 22:30:00,
2013-03-08 17:35:00,40.4,34.7,30.12,NNW,345,5.0,10.0,80,0.05,,---,0.45,VWS V14.01,2013-03-08 22:35:00,
2013-03-08 17:40:00,40.4,35.0,30.13,North,6,3.0,10.0,81,0.05,,---,0.45,VWS V14.01,2013-03-08 22:40:00,
2013-03-08 17:45:00,40.2,34.8,30.13,ENE,65,6.0,10.0,81,0.05,,---,0.45,VWS V14.01,2013-03-08 22:45:00,
2013-03-08 17:50:00,40.1,34.8,30.13,NE,52,9.0,10.0,81,0.06,,---,0.46,VWS V14.01,2013-03-08 22:50:00,
2013-03-08 17:55:00,40.0,34.7,30.14,NNE,24,4.0,11.0,81,0.06,,---,0.46,VWS V14.01,2013-03-08 22:55:00,
2013-03-08 18:00:00,40.2,34.5,30.15,NE,43,5.0,12.0,80,0.07,,---,0.47,VWS V14.01,2013-03-08 23:00:00,
2013-03-08 18:05:00,40.1,34.4,30.15,ENE,58,2.0,9.0,80,0.04,,---,0.47,VWS V14.01,2013-03-08 23:05:00,
2013-03-08 18:10:00,39.9,34.2,30.15,NNE,18,3.0,9.0,80,0.04,,---,0.47,VWS V14.01,2013-03-08 23:10:00,
2013-03-08 18:15:00,39.9,33.9,30.15,NNE,21,5.0,9.0,79,0.04,,---,0.47,VWS V14.01,2013-03-08 23:15:00,
2013-03-08 18:20:00,40.0,33.4,30.15,NNE,32,8.0,9.0,77,0.05,,---,0.48,VWS V14.01,2013-03-08 23:20:00,
2013-03-08 18:25:00,40.1,33.5,30.15,NW,310,5.0,9.0,77,0.05,,---,0.48,VWS V14.01,2013-03-08 23:25:00,
2013-03-08 18:30:00,40.0,33.1,30.16,NNW,328,3.0,9.0,76,0.05,,---,0.48,VWS V14.01,2013-03-08 23:30:00,
2013-03-08 18:35:00,40.0,33.1,30.17,NNE,13,3.0,8.0,76,0.03,,---,0.48,VWS V14.01,2013-03-08 23:35:00,
2013-03-08 18:40:00,39.9,33.3,30.18,North,360,2.0,8.0,77,0.03,,---,0.48,VWS V14.01,2013-03-08 23:40:00,
2013-03-08 18:45:00,39.7,33.1,30.18,North,9,3.0,9.0,77,0.03,,---,0.48,VWS V14.01,2013-03-08 23:45:00,
2013-03-08 18:50:00,39.6,33.0,30.18,NE,44,4.0,9.0,77,0.04,,---,0.49,VWS V14.01,2013-03-08 23:50:00,
2013-03-08 18:55:00,39.5,33.2,30.18,NE,34,2.0,9.0,78,0.04,,---,0.49,VWS V14.01,2013-03-08 23:55:00,
2013-03-08 19:00:00,39.4,33.1,30.18,NNE,27,7.0,9.0,78,0.04,,---,0.49,VWS V14.01,2013-03-09 00:00:00,
2013-03-08 19:05:00,39.3,33.0,30.18,NNW,337,4.0,9.0,78,0.02,,---,0.49,VWS V14.01,2013-03-09 00:05:00,
2013-03-08 19:10:00,39.3,33.0,30.18,NNW,347,2.0,9.0,78,0.02,,---,0.49,VWS V14.01,2013-03-09 00:10:00,
2013-03-08 19:15:00,39.3,32.7,30.18,North,10,6.0,10.0,77,0.02,,---,0.49,VWS V14.01,2013-03-09 00:15:00,
2013-03-08 19:20:00,39.3,32.7,30.18,NNE,25,6.0,10.0,77,0.02,,---,0.49,VWS V14.01,2013-03-09 00:20:00,
2013-03-08 19:25:00,39.3,32.7,30.19,NNW,337,6.0,10.0,77,0.02,,---,0.49,VWS V14.01,2013-03-09 00:25:00,
2013-03-08 19:30:00,39.3,32.4,30.18,NW,309,6.0,10.0,76,0.02,,---,0.49,VWS V14.01,2013-03-09 00:30:00,
2013-03-08 19:35:00,39.2,32.6,30.19,NNW,331,8.0,10.0,77,0.01,,---,0.49,VWS V14.01,2013-03-09 00:35:00,
2013-03-08 19:40:00,39.2,32.6,30.19,NE,54,6.0,10.0,77,0.01,,---,0.49,VWS V14.01,2013-03-09 00:40:00,
2013-03-08 19:45:00,39.1,32.5,30.19,NE,34,5.0,10.0,77,0.01,,---,0.49,VWS V14.01,2013-03-09 00:45:00,
2013-03-08 19:50:00,39.0,32.4,30.19,NW,309,5.0,10.0,77,0.01,,---,0.49,VWS V14.01,2013-03-09 00:50:00,
2013-03-08 19:55:00,38.9,32.6,30.19,NNE,25,4.0,10.0,78,0.01,,---,0.49,VWS V14.01,2013-03-09 00:55:00,
2013-03-08 20:00:00,38.8,32.5,30.19,NNE,20,3.0,10.0,78,0.01,,---,0.49,VWS V14.01,2013-03-09 01:00:00,
2013-03-08 20:05:00,38.8,32.5,30.19,North,9,2.0,6.0,78,0.00,,---,0.49,VWS V14.01,2013-03-09 01:05:00,
2013-03-08 20:10:00,38.7,32.4,30.19,North,358,3.0,7.0,78,0.00,,---,0.49,VWS V14.01,2013-03-09 01:10:00,
2013-03-08 20:15:00,38.7,32.8,30.19,NNE,16,1.0,7.0,79,0.00,,---,0.49,VWS V14.01,2013-03-09 01:15:00,
2013-03-08 20:20:00,38.6,32.7,30.19,NE,46,0.0,7.0,79,0.00,,---,0.49,VWS V14.01,2013-03-09 01:20:00,
2013-03-08 20:25:00,38.5,32.6,30.20,ENE,70,1.0,7.0,79,0.00,,---,0.49,VWS V14.01,2013-03-09 01:25:00,
2013-03-08 20:30:00,38.4,32.5,30.20,ESE,112,1.0,7.0,79,0.00,,---,0.49,VWS V14.01,2013-03-09 01:30:00,
2013-03-08 20:35:00,38.4,32.5,30.20,NE,36,2.0,3.0,79,0.00,,---,0.49,VWS V14.01,2013-03-09 01:35:00,
2013-03-08 20:40:00,38.3,32.4,30.20,NE,36,1.0,3.0,79,0.00,,---,0.49,VWS V14.01,2013-03-09 01:40:00,
2013-03-08 20:45:00,38.5,32.2,30.21,NNE,28,1.0,5.0,78,0.00,,---,0.49,VWS V14.01,2013-03-09 01:45:00,
2013-03-08 20:50:00,38.4,32.5,30.21,East,86,3.0,5.0,79,0.00,,---,0.49,VWS V14.01,2013-03-09 01:50:00,
2013-03-08 20:55:00,38.3,32.4,30.21,NE,48,3.0,5.0,79,0.00,,---,0.49,VWS V14.01,2013-03-09 01:55:00,
2013-03-08 21:00:00,38.3,32.4,30.21,WNW,282,2.0,5.0,79,0.00,,---,0.49,VWS V14.01,2013-03-09 02:00:00,
2013-03-08 21:05:00,38.2,32.3,30.21,NE,49,1.0,5.0,79,0.00,,---,0.49,VWS V14.01,2013-03-09 02:05:00,
2013-03-08 21:10:00,38.2,32.3,30.21,NNE,26,3.0,5.0,79,0.00,,---,0.49,VWS V14.01,2013-03-09 02:10:00,
2013-03-08 21:15:00,38.3,32.4,30.21,NE,44,3.0,5.0,79,0.00,,---,0.49,VWS V14.01,2013-03-09 02:15:00,
2013-03-08 21:20:00,38.2,32.3,30.22,North,3,2.0,5.0,79,0.00,,---,0.49,VWS V14.01,2013-03-09 02:20:00,
2013-03-08 21:25:00,38.2,32.0,30.21,NE,45,4.0,5.0,78,0.00,,---,0.49,VWS V14.01,2013-03-09 02:25:00,
2013-03-08 21:30:00,38.2,32.0,30.21,NE,47,4.0,7.0,78,0.00,,---,0.49,VWS V14.01,2013-03-09 02:30:00,
2013-03-08 21:35:00,38.2,32.0,30.21,NNE,26,3.0,8.0,78,0.00,,---,0.49,VWS V14.01,2013-03-09 02:35:00,
2013-03-08 21:40:00,38.1,31.5,30.21,NNE,26,3.0,8.0,77,0.00,,---,0.49,VWS V14.01,2013-03-09 02:40:00,
2013-03-08 21:45:00,38.1,31.5,30.21,NE,36,2.0,8.0,77,0.00,,---,0.49,VWS V14.01,2013-03-09 02:45:00,
2013-03-08 21:50:00,38.1,31.5,30.21,NNW,342,4.0,8.0,77,0.00,,---,0.49,VWS V14.01,2013-03-09 02:50:00,
2013-03-08 21:55:00,38.2,31.3,30.21,NW,313,1.0,8.0,76,0.00,,---,0.49,VWS V14.01,2013-03-09 02:55:00,
2013-03-08 22:00:00,38.1,31.2,30.22,NNW,335,2.0,8.0,76,0.00,,---,0.49,VWS V14.01,2013-03-09 03:00:00,
2013-03-08 22:05:00,38.0,30.8,30.22,ENE,71,3.0,7.0,75,0.00,,---,0.49,VWS V14.01,2013-03-09 03:05:00,
2013-03-08 22:10:00,38.0,30.8,30.22,ENE,64,4.0,7.0,75,0.00,,---,0.49,VWS V14.01,2013-03-09 03:10:00,
2013-03-08 22:15:00,38.0,31.1,30.22,ENE,78,1.0,7.0,76,0.00,,---,0.49,VWS V14.01,2013-03-09 03:15:00,
2013-03-08 22:20:00,37.7,30.8,30.22,NE,46,1.0,7.0,76,0.00,,---,0.49,VWS V14.01,2013-03-09 03:20:00,
2013-03-08 22:25:00,37.3,30.8,30.22,SE,139,0.0,7.0,77,0.00,,---,0.49,VWS V14.01,2013-03-09 03:25:00,
2013-03-08 22:30:00,36.9,30.7,30.23,ESE,110,0.0,7.0,78,0.00,,---,0.49,VWS V14.01,2013-03-09 03:30:00,
2013-03-08 22:35:00,36.9,30.7,30.22,ESE,114,0.0,2.0,78,0.00,,---,0.49,VWS V14.01,2013-03-09 03:35:00,
2013-03-08 22:40:00,37.1,30.9,30.23,NNE,21,3.0,3.0,78,0.00,,---,0.49,VWS V14.01,2013-03-09 03:40:00,
2013-03-08 22:45:00,37.2,31.3,30.23,NW,308,3.0,6.0,79,0.00,,---,0.49,VWS V14.01,2013-03-09 03:45:00,
2013-03-08 22:50:00,37.4,31.5,30.23,North,356,3.0,7.0,79,0.00,,---,0.49,VWS V14.01,2013-03-09 03:50:00,
2013-03-08 22:55:00,37.5,31.3,30.23,NE,48,4.0,10.0,78,0.00,,---,0.49,VWS V14.01,2013-03-09 03:55:00,
2013-03-08 23:00:00,37.5,31.3,30.23,NNE,21,2.0,10.0,78,0.00,,---,0.49,VWS V14.01,2013-03-09 04:00:00,
2013-03-08 23:05:00,37.4,31.5,30.23,NNW,338,2.0,5.0,79,0.00,,---,0.49,VWS V14.01,2013-03-09 04:05:00,
2013-03-08 23:10:00,37.3,31.1,30.23,NNW,341,2.0,5.0,78,0.00,,---,0.49,VWS V14.01,2013-03-09 04:10:00,
2013-03-08 23:15:00,37.2,31.0,30.23,NNE,30,3.0,6.0,78,0.00,,---,0.49,VWS V14.01,2013-03-09 04:15:00,
2013-03-08 23:20:00,37.0,30.8,30.23,NNE,22,2.0,6.0,78,0.00,,---,0.49,VWS V14.01,2013-03-09 04:20:00,
2013-03-08 23:25:00,36.9,30.4,30.23,NW,316,5.0,8.0,77,0.00,,---,0.49,VWS V14.01,2013-03-09 04:25:00,
2013-03-08 23:30:00,36.9,30.4,30.23,North,359,1.0,8.0,77,0.00,,---,0.49,VWS V14.01,2013-03-09 04:30:00,
2013-03-08 23:35:00,36.6,30.4,30.22,NNW,348,3.0,5.0,78,0.00,,---,0.49,VWS V14.01,2013-03-09 04:35:00,
2013-03-08 23:40:00,36.5,30.0,30.23,North,360,2.0,8.0,77,0.00,,---,0.49,VWS V14.01,2013-03-09 04:40:00,
2013-03-08 23:45:00,36.5,30.3,30.22,NE,41,5.0,8.0,78,0.00,,---,0.49,VWS V14.01,2013-03-09 04:45:00,
2013-03-08 23:50:00,36.4,30.2,30.23,North,9,3.0,8.0,78,0.00,,---,0.49,VWS V14.01,2013-03-09 04:50:00,
2013-03-08 23:55:00,36.4,30.2,30.23,NNE,25,5.0,9.0,78,0.00,,---,0.49,VWS V14.01,2013-03-09 04:55:00,